Location: Biberach+an+der+Riss
(48.0937°N, 9.7888°E)
Time: 04:42:09
(UTC+02:00)

ISS - Pass Details

Date: 02 October 2020
Orbit: 418 x 420 km, 51.6° (Epoch: 20 October)

Event Time Altitude Azimuth Distance (km) Brightness Sun altitude
Rises 20:18:22 0° 292° (WNW) 2,370 1.8 -14.3°
Maximum altitude 20:23:50 79° 206° (SSW) 433 -3.8 -15.2°
Enters shadow 20:25:10 34° 124° (SE) 713 -3.1 -15.4°
